owner,sensor,date,latitude,longitude,vertical_datum,sea_water_temperature,qcFlag
Freeport,ioos:station:wmo:42888:1,2020-12-03T19:22:00Z,26.3043,-91.0723,7.4,24.4,11111222
Freeport,ioos:station:wmo:42888:1,2020-12-03T19:32:00Z,26.3043,-91.0723,6.8,24.4,11111222
Freeport,ioos:station:wmo:42888:1,2020-12-03T19:42:00Z,26.3043,-91.0723,6.7,24.4,11111222
Freeport,ioos:station:wmo:42888:1,2020-12-03T19:52:00Z,26.3043,-91.0723,7.0,24.3,11111222
Freeport,ioos:station:wmo:42888:1,2020-12-03T20:02:00Z,26.3043,-91.0723,6.8,24.3,11111222
Freeport,ioos:station:wmo:42888:1,2020-12-03T20:12:00Z,26.3043,-91.0723,7.3,24.3,11111222
Freeport,ioos:station:wmo:42888:1,2020-12-03T20:22:00Z,26.3043,-91.0723,7.0,24.4,11111222
Freeport,ioos:station:wmo:42888:1,2020-12-03T20:32:00Z,26.3043,-91.0723,6.9,24.4,11111222
Freeport,ioos:station:wmo:42888:1,2020-12-03T20:42:00Z,26.3043,-91.0723,7.0,24.4,11111222
Freeport,ioos:station:wmo:42888:1,2020-12-03T20:52:00Z,26.3043,-91.0723,7.0,24.4,11111222
Freeport,ioos:station:wmo:42888:1,2020-12-03T21:02:00Z,26.3043,-91.0723,7.2,24.4,11111222
Freeport,ioos:station:wmo:42888:1,2020-12-03T21:12:00Z,26.3043,-91.0723,7.2,24.4,11111222
Freeport,ioos:station:wmo:42888:1,2020-12-03T21:22:00Z,26.3043,-91.0723,7.0,24.4,11111222
Freeport,ioos:station:wmo:42888:1,2020-12-03T21:32:00Z,26.3046,-91.0720,7.1,24.3,11111222
Freeport,ioos:station:wmo:42888:1,2020-12-03T21:42:00Z,26.3047,-91.0720,7.2,24.3,11111222
Freeport,ioos:station:wmo:42888:1,2020-12-03T21:52:00Z,26.3047,-91.0719,7.0,24.3,11111222
Freeport,ioos:station:wmo:42888:1,2020-12-03T22:02:00Z,26.3049,-91.0719,6.8,24.3,11111222
Freeport,ioos:station:wmo:42888:1,2020-12-03T22:12:00Z,26.3051,-91.0720,7.1,24.4,11111222
Freeport,ioos:station:wmo:42888:1,2020-12-03T22:22:00Z,26.3051,-91.0720,6.8,24.5,11111222
Freeport,ioos:station:wmo:42888:1,2020-12-03T22:32:00Z,26.3051,-91.0720,6.8,24.5,11111222
Freeport,ioos:station:wmo:42888:1,2020-12-03T22:42:00Z,26.3051,-91.0720,6.9,24.4,11111222
Freeport,ioos:station:wmo:42888:1,2020-12-03T22:52:00Z,26.3051,-91.0720,6.8,24.4,11111222
Freeport,ioos:station:wmo:42888:1,2020-12-03T23:02:00Z,26.3051,-91.0720,6.7,24.4,11111222
Freeport,ioos:station:wmo:42888:1,2020-12-03T23:12:00Z,26.3051,-91.0720,7.1,24.4,11111222
Freeport,ioos:station:wmo:42888:1,2020-12-03T23:22:00Z,26.3051,-91.0720,6.6,24.5,11111222
Freeport,ioos:station:wmo:42888:1,2020-12-03T23:32:00Z,26.3051,-91.0720,6.7,24.5,11111222
Freeport,ioos:station:wmo:42888:1,2020-12-03T23:42:00Z,26.3051,-91.0720,6.9,24.5,11111222
Freeport,ioos:station:wmo:42888:1,2020-12-03T23:52:00Z,26.3051,-91.0720,6.9,24.5,11111222
Freeport,ioos:station:wmo:42888:1,2020-12-04T00:02:00Z,26.3051,-91.0720,6.7,24.5,11111222
Freeport,ioos:station:wmo:42888:1,2020-12-04T00:12:00Z,26.3051,-91.0720,6.6,24.6,11111222
Freeport,ioos:station:wmo:42888:1,2020-12-04T00:22:00Z,26.3051,-91.0720,6.9,24.6,11111222
Freeport,ioos:station:wmo:42888:1,2020-12-04T00:32:00Z,26.3051,-91.0720,6.8,24.6,11111222
Freeport,ioos:station:wmo:42888:1,2020-12-04T00:42:00Z,26.3051,-91.0720,6.8,24.7,11111222
Freeport,ioos:station:wmo:42888:1,2020-12-04T00:52:00Z,26.3051,-91.0720,6.7,24.6,11111222
Freeport,ioos:station:wmo:42888:1,2020-12-04T01:02:00Z,26.3051,-91.0720,6.9,24.6,11111222
Freeport,ioos:station:wmo:42888:1,2020-12-04T01:12:00Z,26.3051,-91.0720,6.8,24.6,11111222
Freeport,ioos:station:wmo:42888:1,2020-12-04T01:22:00Z,26.3051,-91.0720,7.7,24.6,11111222
Freeport,ioos:station:wmo:42888:1,2020-12-04T01:32:00Z,26.3051,-91.0720,7.0,24.6,11111222
Freeport,ioos:station:wmo:42888:1,2020-12-04T01:42:00Z,26.3051,-91.0720,6.8,24.6,11111222
Freeport,ioos:station:wmo:42888:1,2020-12-04T01:52:00Z,26.3051,-91.0720,6.7,24.5,11111222
Freeport,ioos:station:wmo:42888:1,2020-12-04T02:02:00Z,26.3051,-91.0720,6.8,24.5,11111222
Freeport,ioos:station:wmo:42888:1,2020-12-04T02:12:00Z,26.3051,-91.0720,7.0,24.5,11111222
Freeport,ioos:station:wmo:42888:1,2020-12-04T02:22:00Z,26.3051,-91.0720,7.0,24.5,11111222
Freeport,ioos:station:wmo:42888:1,2020-12-04T02:32:00Z,26.3051,-91.0720,6.5,24.5,11111222
Freeport,ioos:station:wmo:42888:1,2020-12-04T02:42:00Z,26.3051,-91.0720,6.7,24.5,11111222
Freeport,ioos:station:wmo:42888:1,2020-12-04T02:52:00Z,26.3051,-91.0720,7.0,24.5,11111222
Freeport,ioos:station:wmo:42888:1,2020-12-04T03:02:00Z,26.3051,-91.0720,6.7,24.5,11111222
Freeport,ioos:station:wmo:42888:1,2020-12-04T03:12:00Z,26.3051,-91.0720,6.9,24.5,11111222
Freeport,ioos:station:wmo:42888:1,2020-12-04T03:22:00Z,26.3051,-91.0720,6.9,24.5,11111222
Freeport,ioos:station:wmo:42888:1,2020-12-04T03:32:00Z,26.3051,-91.0720,7.2,24.5,11111222
Freeport,ioos:station:wmo:42888:1,2020-12-04T03:42:00Z,26.3051,-91.0720,6.8,24.5,11111222
Freeport,ioos:station:wmo:42888:1,2020-12-04T03:52:00Z,26.3051,-91.0720,7.0,24.5,11111222
Freeport,ioos:station:wmo:42888:1,2020-12-04T04:02:00Z,26.3051,-91.0720,6.8,24.5,11111222
Freeport,ioos:station:wmo:42888:1,2020-12-04T04:12:00Z,26.3051,-91.0720,6.8,24.5,11111222
Freeport,ioos:station:wmo:42888:1,2020-12-04T04:22:00Z,26.3051,-91.0720,6.7,24.4,11111222
Freeport,ioos:station:wmo:42888:1,2020-12-04T04:32:00Z,26.3051,-91.0720,6.7,24.4,11111222
Freeport,ioos:station:wmo:42888:1,2020-12-04T04:42:00Z,26.3051,-91.0720,7.0,24.4,11111222
Freeport,ioos:station:wmo:42888:1,2020-12-04T04:52:00Z,26.3051,-91.0720,7.0,24.4,11111222
Freeport,ioos:station:wmo:42888:1,2020-12-04T05:02:00Z,26.3051,-91.0720,6.9,24.4,11111222
Freeport,ioos:station:wmo:42888:1,2020-12-04T05:12:00Z,26.3051,-91.0720,6.9,24.4,11111222
Freeport,ioos:station:wmo:42888:1,2020-12-04T05:22:00Z,26.3051,-91.0720,6.8,24.4,11111222
Freeport,ioos:station:wmo:42888:1,2020-12-04T05:32:00Z,26.3051,-91.0720,7.1,24.4,11111222
Freeport,ioos:station:wmo:42888:1,2020-12-04T05:42:00Z,26.3051,-91.0720,7.3,24.4,11111222
Freeport,ioos:station:wmo:42888:1,2020-12-04T05:52:00Z,26.3051,-91.0720,7.3,24.4,11111222
Freeport,ioos:station:wmo:42888:1,2020-12-04T06:02:00Z,26.3051,-91.0720,7.1,24.4,11111222
Freeport,ioos:station:wmo:42888:1,2020-12-04T06:12:00Z,26.3051,-91.0720,7.0,24.4,11111222
Freeport,ioos:station:wmo:42888:1,2020-12-04T06:22:00Z,26.3051,-91.0720,7.0,24.4,11111222
Freeport,ioos:station:wmo:42888:1,2020-12-04T06:32:00Z,26.3051,-91.0720,7.2,24.4,11111222
Freeport,ioos:station:wmo:42888:1,2020-12-04T06:42:00Z,26.3051,-91.0720,7.1,24.4,11111222
Freeport,ioos:station:wmo:42888:1,2020-12-04T06:52:00Z,26.3051,-91.0720,7.1,24.4,11111222
Freeport,ioos:station:wmo:42888:1,2020-12-04T07:02:00Z,26.3051,-91.0720,6.8,24.4,11111222
Freeport,ioos:station:wmo:42888:1,2020-12-04T07:12:00Z,26.3051,-91.0720,6.8,24.4,11111222
Freeport,ioos:station:wmo:42888:1,2020-12-04T07:22:00Z,26.3051,-91.0720,7.2,24.4,11111222
Freeport,ioos:station:wmo:42888:1,2020-12-04T07:32:00Z,26.3051,-91.0720,7.0,24.4,11111222
Freeport,ioos:station:wmo:42888:1,2020-12-04T07:42:00Z,26.3051,-91.0720,6.8,24.4,11111222
Freeport,ioos:station:wmo:42888:1,2020-12-04T07:52:00Z,26.3051,-91.0720,6.9,24.4,11111222
Freeport,ioos:station:wmo:42888:1,2020-12-04T08:02:00Z,26.3051,-91.0720,7.2,24.4,11111222
Freeport,ioos:station:wmo:42888:1,2020-12-04T08:12:00Z,26.3051,-91.0720,6.8,24.4,11111222
Freeport,ioos:station:wmo:42888:1,2020-12-04T08:22:00Z,26.3051,-91.0720,6.8,24.4,11111222
Freeport,ioos:station:wmo:42888:1,2020-12-04T08:32:00Z,26.3051,-91.0720,7.1,24.4,11111222
Freeport,ioos:station:wmo:42888:1,2020-12-04T08:42:00Z,26.3051,-91.0721,6.5,24.4,11111222
Freeport,ioos:station:wmo:42888:1,2020-12-04T08:52:00Z,26.3051,-91.0720,6.8,24.4,11111222
Freeport,ioos:station:wmo:42888:1,2020-12-04T09:02:00Z,26.3051,-91.0720,6.8,24.4,11111222
Freeport,ioos:station:wmo:42888:1,2020-12-04T09:12:00Z,26.3051,-91.0720,6.7,24.4,11111222
Freeport,ioos:station:wmo:42888:1,2020-12-04T09:22:00Z,26.3051,-91.0720,6.7,24.4,11111222
Freeport,ioos:station:wmo:42888:1,2020-12-04T09:32:00Z,26.3051,-91.0719,6.8,24.4,11111222
Freeport,ioos:station:wmo:42888:1,2020-12-04T09:42:00Z,26.3051,-91.0719,7.1,24.4,11111222
Freeport,ioos:station:wmo:42888:1,2020-12-04T09:52:00Z,26.3051,-91.0720,6.8,24.4,11111222
Freeport,ioos:station:wmo:42888:1,2020-12-04T10:02:00Z,26.3051,-91.0720,7.0,24.4,11111222
Freeport,ioos:station:wmo:42888:1,2020-12-04T10:12:00Z,26.3051,-91.0720,6.9,24.4,11111222
Freeport,ioos:station:wmo:42888:1,2020-12-04T10:22:00Z,26.3051,-91.0720,7.0,24.4,11111222
Freeport,ioos:station:wmo:42888:1,2020-12-04T10:32:00Z,26.3051,-91.0720,6.9,24.4,11111222
Freeport,ioos:station:wmo:42888:1,2020-12-04T10:42:00Z,26.3051,-91.0720,6.7,24.4,11111222
Freeport,ioos:station:wmo:42888:1,2020-12-04T10:52:00Z,26.3051,-91.0720,6.8,24.4,11111222
Freeport,ioos:station:wmo:42888:1,2020-12-04T11:02:00Z,26.3051,-91.0720,6.4,24.4,11111222
Freeport,ioos:station:wmo:42888:1,2020-12-04T11:12:00Z,26.3051,-91.0720,6.9,24.4,11111222
Freeport,ioos:station:wmo:42888:1,2020-12-04T11:22:00Z,26.3051,-91.0720,6.8,24.4,11111222
Freeport,ioos:station:wmo:42888:1,2020-12-04T11:32:00Z,26.3051,-91.0720,6.8,24.4,11111222
Freeport,ioos:station:wmo:42888:1,2020-12-04T11:42:00Z,26.3051,-91.0720,6.7,24.4,11111222
Freeport,ioos:station:wmo:42888:1,2020-12-04T11:52:00Z,26.3051,-91.0720,6.8,24.4,11111222
Freeport,ioos:station:wmo:42888:1,2020-12-04T12:02:00Z,26.3051,-91.0720,6.6,24.4,11111222
Freeport,ioos:station:wmo:42888:1,2020-12-04T12:12:00Z,26.3051,-91.0720,7.1,24.4,11111222
Freeport,ioos:station:wmo:42888:1,2020-12-04T12:22:00Z,26.3051,-91.0720,7.1,24.4,11111222
Freeport,ioos:station:wmo:42888:1,2020-12-04T12:32:00Z,26.3051,-91.0720,7.2,24.4,11111222
Freeport,ioos:station:wmo:42888:1,2020-12-04T12:42:00Z,26.3051,-91.0720,7.1,24.4,11111222
Freeport,ioos:station:wmo:42888:1,2020-12-04T12:52:00Z,26.3051,-91.0720,6.6,24.4,11111222
Freeport,ioos:station:wmo:42888:1,2020-12-04T13:02:00Z,26.3051,-91.0720,6.9,24.4,11111222
Freeport,ioos:station:wmo:42888:1,2020-12-04T13:12:00Z,26.3051,-91.0720,6.7,24.4,11111222
Freeport,ioos:station:wmo:42888:1,2020-12-04T13:22:00Z,26.3051,-91.0720,7.0,24.4,11111222
Freeport,ioos:station:wmo:42888:1,2020-12-04T13:32:00Z,26.3055,-91.0723,6.8,24.4,11111222
Freeport,ioos:station:wmo:42888:1,2020-12-04T13:42:00Z,26.3056,-91.0726,6.8,24.4,11111222
Freeport,ioos:station:wmo:42888:1,2020-12-04T13:52:00Z,26.3056,-91.0726,7.0,24.4,11111222
Freeport,ioos:station:wmo:42888:1,2020-12-04T14:02:00Z,26.3056,-91.0726,7.0,24.4,11111222
Freeport,ioos:station:wmo:42888:1,2020-12-04T14:12:00Z,26.3056,-91.0726,6.9,24.4,11111222
Freeport,ioos:station:wmo:42888:1,2020-12-04T14:22:00Z,26.3056,-91.0726,6.6,24.4,11111222
Freeport,ioos:station:wmo:42888:1,2020-12-04T14:32:00Z,26.3056,-91.0726,6.7,24.4,11111222
Freeport,ioos:station:wmo:42888:1,2020-12-04T14:42:00Z,26.3056,-91.0727,6.6,24.4,11111222
Freeport,ioos:station:wmo:42888:1,2020-12-04T14:52:00Z,26.3056,-91.0726,6.6,24.4,11111222
Freeport,ioos:station:wmo:42888:1,2020-12-04T15:02:00Z,26.3056,-91.0726,6.6,24.4,11111222
Freeport,ioos:station:wmo:42888:1,2020-12-04T15:12:00Z,26.3056,-91.0726,6.6,24.4,11111222
Freeport,ioos:station:wmo:42888:1,2020-12-04T15:22:00Z,26.3056,-91.0726,6.9,24.4,11111222
Freeport,ioos:station:wmo:42888:1,2020-12-04T15:32:00Z,26.3056,-91.0726,6.9,24.4,11111222
Freeport,ioos:station:wmo:42888:1,2020-12-04T15:42:00Z,26.3056,-91.0726,6.7,24.4,11111222
Freeport,ioos:station:wmo:42888:1,2020-12-04T15:52:00Z,26.3057,-91.0726,6.9,24.4,11111222
Freeport,ioos:station:wmo:42888:1,2020-12-04T16:02:00Z,26.3056,-91.0726,6.9,24.4,11111222
Freeport,ioos:station:wmo:42888:1,2020-12-04T16:12:00Z,26.3057,-91.0726,6.5,24.4,11111222
Freeport,ioos:station:wmo:42888:1,2020-12-04T16:22:00Z,26.3056,-91.0727,6.8,24.4,11111222
Freeport,ioos:station:wmo:42888:1,2020-12-04T16:32:00Z,26.3056,-91.0726,6.6,24.4,11111222
Freeport,ioos:station:wmo:42888:1,2020-12-04T16:42:00Z,26.3056,-91.0726,6.7,24.4,11111222
Freeport,ioos:station:wmo:42888:1,2020-12-04T16:52:00Z,26.3056,-91.0726,6.9,24.4,11111222
Freeport,ioos:station:wmo:42888:1,2020-12-04T17:02:00Z,26.3056,-91.0726,6.7,24.4,11111222
Freeport,ioos:station:wmo:42888:1,2020-12-04T17:12:00Z,26.3056,-91.0726,6.8,24.4,11111222
Freeport,ioos:station:wmo:42888:1,2020-12-04T17:22:00Z,26.3056,-91.0727,6.7,24.4,11111222
Freeport,ioos:station:wmo:42888:1,2020-12-04T17:32:00Z,26.3056,-91.0726,6.5,24.4,11111222
Freeport,ioos:station:wmo:42888:1,2020-12-04T17:42:00Z,26.3057,-91.0727,6.8,24.4,11111222
Freeport,ioos:station:wmo:42888:1,2020-12-04T17:52:00Z,26.3056,-91.0726,6.5,24.4,11111222
Freeport,ioos:station:wmo:42888:1,2020-12-04T18:02:00Z,26.3057,-91.0726,6.6,24.4,11111222
Freeport,ioos:station:wmo:42888:1,2020-12-04T18:12:00Z,26.3056,-91.0726,6.7,24.4,11111222
Freeport,ioos:station:wmo:42888:1,2020-12-04T18:22:00Z,26.3056,-91.0727,6.6,24.4,11111222
Freeport,ioos:station:wmo:42888:1,2020-12-04T18:32:00Z,26.3056,-91.0726,6.6,24.4,11111222
Freeport,ioos:station:wmo:42888:1,2020-12-04T18:42:00Z,26.3056,-91.0726,6.6,24.4,11111222
Freeport,ioos:station:wmo:42888:1,2020-12-04T18:52:00Z,26.3056,-91.0726,6.5,24.4,11111222
Freeport,ioos:station:wmo:42888:1,2020-12-04T19:02:00Z,26.3056,-91.0726,6.8,24.4,11111222
Freeport,ioos:station:wmo:42888:1,2020-12-04T19:12:00Z,26.3056,-91.0726,6.9,24.4,11111222
Freeport,ioos:station:wmo:42888:1,2020-12-04T19:22:00Z,26.3056,-91.0726,6.8,24.4,11111222
Freeport,ioos:station:wmo:42888:1,2020-12-04T19:32:00Z,26.3057,-91.0726,7.2,24.4,11111222
Freeport,ioos:station:wmo:42888:1,2020-12-04T19:42:00Z,26.3056,-91.0726,6.9,24.4,11111222
Freeport,ioos:station:wmo:42888:1,2020-12-04T19:52:00Z,26.3056,-91.0726,7.1,24.4,11111222
Freeport,ioos:station:wmo:42888:1,2020-12-04T20:02:00Z,26.3056,-91.0726,6.7,24.4,11111222
Freeport,ioos:station:wmo:42888:1,2020-12-04T20:12:00Z,26.3056,-91.0726,6.5,24.4,11111222
Freeport,ioos:station:wmo:42888:1,2020-12-04T20:22:00Z,26.3056,-91.0727,6.6,24.4,11111222
Freeport,ioos:station:wmo:42888:1,2020-12-04T20:32:00Z,26.3056,-91.0726,6.7,24.4,11111222
Freeport,ioos:station:wmo:42888:1,2020-12-04T20:42:00Z,26.3057,-91.0726,6.8,24.4,11111222
Freeport,ioos:station:wmo:42888:1,2020-12-04T20:52:00Z,26.3056,-91.0727,6.7,24.4,11111222
Freeport,ioos:station:wmo:42888:1,2020-12-04T21:02:00Z,26.3056,-91.0726,6.9,24.4,11111222
Freeport,ioos:station:wmo:42888:1,2020-12-04T21:12:00Z,26.3056,-91.0727,6.7,24.4,11111222
Freeport,ioos:station:wmo:42888:1,2020-12-04T21:22:00Z,26.3056,-91.0726,6.6,24.4,11111222
Freeport,ioos:station:wmo:42888:1,2020-12-04T21:32:00Z,26.3056,-91.0726,6.7,24.4,11111222
Freeport,ioos:station:wmo:42888:1,2020-12-04T21:42:00Z,26.3056,-91.0726,6.6,24.4,11111222
Freeport,ioos:station:wmo:42888:1,2020-12-04T21:52:00Z,26.3056,-91.0726,6.7,24.4,11111222
Freeport,ioos:station:wmo:42888:1,2020-12-04T22:02:00Z,26.3056,-91.0726,6.5,24.4,11111222
Freeport,ioos:station:wmo:42888:1,2020-12-04T22:12:00Z,26.3056,-91.0726,6.5,24.4,11111222
Freeport,ioos:station:wmo:42888:1,2020-12-04T22:22:00Z,26.3056,-91.0726,6.8,24.4,11111222
Freeport,ioos:station:wmo:42888:1,2020-12-04T22:32:00Z,26.3056,-91.0726,6.9,24.4,11111222
Freeport,ioos:station:wmo:42888:1,2020-12-04T22:42:00Z,26.3056,-91.0726,6.8,24.4,11111222
Freeport,ioos:station:wmo:42888:1,2020-12-04T22:52:00Z,26.3056,-91.0727,6.8,24.4,11111222
Freeport,ioos:station:wmo:42888:1,2020-12-04T23:02:00Z,26.3057,-91.0726,6.5,24.4,11111222
Freeport,ioos:station:wmo:42888:1,2020-12-04T23:12:00Z,26.3056,-91.0726,6.9,24.4,11111222
Freeport,ioos:station:wmo:42888:1,2020-12-04T23:22:00Z,26.3057,-91.0727,6.6,24.4,11111222
Freeport,ioos:station:wmo:42888:1,2020-12-04T23:32:00Z,26.3056,-91.0727,6.8,24.4,11111222
Freeport,ioos:station:wmo:42888:1,2020-12-04T23:42:00Z,26.3056,-91.0726,6.7,24.4,11111222
Freeport,ioos:station:wmo:42888:1,2020-12-04T23:52:00Z,26.3057,-91.0726,6.6,24.4,11111222
Freeport,ioos:station:wmo:42888:1,2020-12-05T00:02:00Z,26.3057,-91.0727,6.7,24.4,11111222
Freeport,ioos:station:wmo:42888:1,2020-12-05T00:12:00Z,26.3057,-91.0726,6.7,24.3,11111222
Freeport,ioos:station:wmo:42888:1,2020-12-05T00:22:00Z,26.3056,-91.0726,6.5,24.3,11111222
Freeport,ioos:station:wmo:42888:1,2020-12-05T00:32:00Z,26.3057,-91.0726,6.8,24.3,11111222
Freeport,ioos:station:wmo:42888:1,2020-12-05T00:42:00Z,26.3057,-91.0726,6.9,24.3,11111222
Freeport,ioos:station:wmo:42888:1,2020-12-05T00:52:00Z,26.3056,-91.0726,6.6,24.3,11111222
Freeport,ioos:station:wmo:42888:1,2020-12-05T01:02:00Z,26.3056,-91.0726,6.9,24.3,11111222
Freeport,ioos:station:wmo:42888:1,2020-12-05T01:12:00Z,26.3056,-91.0726,6.7,24.3,11111222
Freeport,ioos:station:wmo:42888:1,2020-12-05T01:22:00Z,26.3056,-91.0727,6.9,24.2,11111222
Freeport,ioos:station:wmo:42888:1,2020-12-05T01:32:00Z,26.3056,-91.0726,6.7,24.2,11111222
Freeport,ioos:station:wmo:42888:1,2020-12-05T01:42:00Z,26.3056,-91.0725,6.9,24.2,11111222
Freeport,ioos:station:wmo:42888:1,2020-12-05T01:52:00Z,26.3055,-91.0724,7.1,24.2,11111222
Freeport,ioos:station:wmo:42888:1,2020-12-05T02:02:00Z,26.3056,-91.0724,6.8,24.2,11111222
Freeport,ioos:station:wmo:42888:1,2020-12-05T02:12:00Z,26.3055,-91.0724,6.7,24.2,11111222
Freeport,ioos:station:wmo:42888:1,2020-12-05T02:22:00Z,26.3056,-91.0724,6.8,24.2,11111222
Freeport,ioos:station:wmo:42888:1,2020-12-05T02:32:00Z,26.3056,-91.0724,6.9,24.2,11111222
Freeport,ioos:station:wmo:42888:1,2020-12-05T02:42:00Z,26.3055,-91.0724,6.8,24.2,11111222
Freeport,ioos:station:wmo:42888:1,2020-12-05T02:52:00Z,26.3055,-91.0724,6.7,24.2,11111222
Freeport,ioos:station:wmo:42888:1,2020-12-05T03:02:00Z,26.3056,-91.0724,7.0,24.2,11111222
Freeport,ioos:station:wmo:42888:1,2020-12-05T03:12:00Z,26.3055,-91.0724,6.9,24.2,11111222
Freeport,ioos:station:wmo:42888:1,2020-12-05T03:22:00Z,26.3056,-91.0724,7.0,24.2,11111222
Freeport,ioos:station:wmo:42888:1,2020-12-05T03:32:00Z,26.3055,-91.0724,6.5,24.2,11111222
Freeport,ioos:station:wmo:42888:1,2020-12-05T03:42:00Z,26.3056,-91.0724,6.9,24.2,11111222
Freeport,ioos:station:wmo:42888:1,2020-12-05T03:52:00Z,26.3055,-91.0724,6.9,24.2,11111222
Freeport,ioos:station:wmo:42888:1,2020-12-05T04:02:00Z,26.3055,-91.0724,6.9,24.2,11111222
Freeport,ioos:station:wmo:42888:1,2020-12-05T04:12:00Z,26.3055,-91.0724,6.8,24.2,11111222
Freeport,ioos:station:wmo:42888:1,2020-12-05T04:22:00Z,26.3056,-91.0724,6.9,24.2,11111222
Freeport,ioos:station:wmo:42888:1,2020-12-05T04:32:00Z,26.3055,-91.0724,6.9,24.2,11111222
Freeport,ioos:station:wmo:42888:1,2020-12-05T04:42:00Z,26.3056,-91.0724,7.1,24.2,11111222
Freeport,ioos:station:wmo:42888:1,2020-12-05T04:52:00Z,26.3056,-91.0724,7.0,24.2,11111222
Freeport,ioos:station:wmo:42888:1,2020-12-05T05:02:00Z,26.3055,-91.0724,6.9,24.2,11111222
Freeport,ioos:station:wmo:42888:1,2020-12-05T05:12:00Z,26.3056,-91.0724,7.0,24.2,11111222
Freeport,ioos:station:wmo:42888:1,2020-12-05T05:22:00Z,26.3056,-91.0724,7.0,24.2,11111222
Freeport,ioos:station:wmo:42888:1,2020-12-05T05:32:00Z,26.3056,-91.0724,7.0,24.2,11111222
Freeport,ioos:station:wmo:42888:1,2020-12-05T05:42:00Z,26.3055,-91.0724,6.8,24.2,11111222
Freeport,ioos:station:wmo:42888:1,2020-12-05T05:52:00Z,26.3055,-91.0724,6.7,24.2,11111222
Freeport,ioos:station:wmo:42888:1,2020-12-05T06:02:00Z,26.3056,-91.0724,6.9,24.2,11111222
Freeport,ioos:station:wmo:42888:1,2020-12-05T06:12:00Z,26.3055,-91.0724,6.9,24.2,11111222
Freeport,ioos:station:wmo:42888:1,2020-12-05T06:22:00Z,26.3055,-91.0724,6.9,24.2,11111222
Freeport,ioos:station:wmo:42888:1,2020-12-05T06:32:00Z,26.3055,-91.0724,6.7,24.2,11111222
Freeport,ioos:station:wmo:42888:1,2020-12-05T06:42:00Z,26.3056,-91.0724,6.8,24.2,11111222
Freeport,ioos:station:wmo:42888:1,2020-12-05T06:52:00Z,26.3055,-91.0724,6.8,24.2,11111222
Freeport,ioos:station:wmo:42888:1,2020-12-05T07:02:00Z,26.3056,-91.0724,6.7,24.2,11111222
Freeport,ioos:station:wmo:42888:1,2020-12-05T07:12:00Z,26.3056,-91.0724,6.8,24.2,11111222
Freeport,ioos:station:wmo:42888:1,2020-12-05T07:22:00Z,26.3056,-91.0724,6.6,24.2,11111222
Freeport,ioos:station:wmo:42888:1,2020-12-05T07:32:00Z,26.3056,-91.0724,6.3,24.2,11111222
Freeport,ioos:station:wmo:42888:1,2020-12-05T07:42:00Z,26.3055,-91.0724,6.5,24.2,11111222
Freeport,ioos:station:wmo:42888:1,2020-12-05T07:52:00Z,26.3056,-91.0724,6.3,24.2,11111222
Freeport,ioos:station:wmo:42888:1,2020-12-05T08:02:00Z,26.3055,-91.0724,6.5,24.2,11111222
Freeport,ioos:station:wmo:42888:1,2020-12-05T08:12:00Z,26.3056,-91.0724,6.3,24.2,11111222
Freeport,ioos:station:wmo:42888:1,2020-12-05T08:22:00Z,26.3055,-91.0725,6.6,24.2,11111222
Freeport,ioos:station:wmo:42888:1,2020-12-05T08:32:00Z,26.3055,-91.0725,6.6,24.2,11111222
Freeport,ioos:station:wmo:42888:1,2020-12-05T08:42:00Z,26.3056,-91.0724,6.8,24.2,11111222
Freeport,ioos:station:wmo:42888:1,2020-12-05T08:52:00Z,26.3055,-91.0724,7.1,24.2,11111222
Freeport,ioos:station:wmo:42888:1,2020-12-05T09:02:00Z,26.3055,-91.0724,6.9,24.2,11111222
Freeport,ioos:station:wmo:42888:1,2020-12-05T09:12:00Z,26.3055,-91.0724,7.3,24.2,11111222
Freeport,ioos:station:wmo:42888:1,2020-12-05T09:22:00Z,26.3056,-91.0724,7.1,24.2,11111222
Freeport,ioos:station:wmo:42888:1,2020-12-05T09:32:00Z,26.3056,-91.0724,7.3,24.3,11111222
Freeport,ioos:station:wmo:42888:1,2020-12-05T09:42:00Z,26.3055,-91.0724,7.2,24.4,11111222
Freeport,ioos:station:wmo:42888:1,2020-12-05T09:52:00Z,26.3056,-91.0724,6.8,24.4,11111222
Freeport,ioos:station:wmo:42888:1,2020-12-05T10:02:00Z,26.3056,-91.0724,6.8,24.4,11111222
Freeport,ioos:station:wmo:42888:1,2020-12-05T10:12:00Z,26.3056,-91.0724,6.5,24.4,11111222
Freeport,ioos:station:wmo:42888:1,2020-12-05T10:22:00Z,26.3055,-91.0724,6.9,24.4,11111222
Freeport,ioos:station:wmo:42888:1,2020-12-05T10:32:00Z,26.3056,-91.0724,6.8,24.4,11111222
Freeport,ioos:station:wmo:42888:1,2020-12-05T10:42:00Z,26.3055,-91.0724,6.9,24.4,11111222
Freeport,ioos:station:wmo:42888:1,2020-12-05T10:52:00Z,26.3052,-91.0720,7.0,24.4,11111222
Freeport,ioos:station:wmo:42888:1,2020-12-05T11:02:00Z,26.3052,-91.0721,6.9,24.3,11111222
Freeport,ioos:station:wmo:42888:1,2020-12-05T11:12:00Z,26.3052,-91.0721,6.7,24.3,11111222
Freeport,ioos:station:wmo:42888:1,2020-12-05T11:22:00Z,26.3052,-91.0720,6.6,24.3,11111222
Freeport,ioos:station:wmo:42888:1,2020-12-05T11:32:00Z,26.3052,-91.0720,6.7,24.3,11111222
Freeport,ioos:station:wmo:42888:1,2020-12-05T11:42:00Z,26.3052,-91.0720,6.6,24.3,11111222
Freeport,ioos:station:wmo:42888:1,2020-12-05T11:52:00Z,26.3053,-91.0721,6.6,24.3,11111222
Freeport,ioos:station:wmo:42888:1,2020-12-05T12:02:00Z,26.3052,-91.0721,6.8,24.3,11111222
Freeport,ioos:station:wmo:42888:1,2020-12-05T12:12:00Z,26.3052,-91.0720,6.9,24.3,11111222
Freeport,ioos:station:wmo:42888:1,2020-12-05T12:22:00Z,26.3052,-91.0721,7.1,24.3,11111222
Freeport,ioos:station:wmo:42888:1,2020-12-05T12:32:00Z,26.3052,-91.0721,6.4,24.3,11111222
Freeport,ioos:station:wmo:42888:1,2020-12-05T12:42:00Z,26.3052,-91.0721,7.0,24.3,11111222
Freeport,ioos:station:wmo:42888:1,2020-12-05T12:52:00Z,26.3052,-91.0720,6.7,24.3,11111222
Freeport,ioos:station:wmo:42888:1,2020-12-05T13:02:00Z,26.3053,-91.0721,6.7,24.3,11111222
Freeport,ioos:station:wmo:42888:1,2020-12-05T13:12:00Z,26.3052,-91.0721,6.9,24.3,11111222
Freeport,ioos:station:wmo:42888:1,2020-12-05T13:22:00Z,26.3053,-91.0720,6.9,24.3,11111222
Freeport,ioos:station:wmo:42888:1,2020-12-05T13:32:00Z,26.3052,-91.0720,7.0,24.3,11111222
Freeport,ioos:station:wmo:42888:1,2020-12-05T13:42:00Z,26.3052,-91.0720,7.0,24.3,11111222
Freeport,ioos:station:wmo:42888:1,2020-12-05T13:52:00Z,26.3052,-91.0720,7.2,24.3,11111222
Freeport,ioos:station:wmo:42888:1,2020-12-05T14:02:00Z,26.3052,-91.0720,7.2,24.3,11111222
Freeport,ioos:station:wmo:42888:1,2020-12-05T14:12:00Z,26.3052,-91.0720,7.2,24.3,11111222
Freeport,ioos:station:wmo:42888:1,2020-12-05T14:22:00Z,26.3053,-91.0720,7.3,24.3,11111222
Freeport,ioos:station:wmo:42888:1,2020-12-05T14:32:00Z,26.3052,-91.0721,6.9,24.3,11111222
Freeport,ioos:station:wmo:42888:1,2020-12-05T14:42:00Z,26.3052,-91.0720,7.0,24.3,11111222
Freeport,ioos:station:wmo:42888:1,2020-12-05T14:52:00Z,26.3053,-91.0720,7.2,24.3,11111222